World > North America > United States > Texas > Poteet   City of Poteet, TX

Poteet, TX Hourly Weather Updates

Feedback E-mail the Weather

Quick Clicks

Poteet, TX Weather Maps

°F °C°F °C
Poteet Weather Map
UTC Time: 6/17/2024, 07:51
Your Time:

Poteet, TX Regional Weather

Expires:202406170800;;158893
ASUS44 KSJT 170710
RWRSJT
WEST CENTRAL TEXAS REGIONAL WEATHER ROUNDUP
NATIONAL WEATHER SERVICE SAN ANGELO TX
200 AM CDT MON JUN 17 2024

NOTE: "FAIR" INDICATES FEW OR NO CLOUDS BELOW 12,000 FEET WITH NO
SIGNIFICANT WEATHER AND/OR OBSTRUCTIONS TO VISIBILITY.


TXZ145-158-159-173-191-192-194-205-207-220-223-170800-
CENTRAL AND SOUTH CENTRAL TEXAS
  
CITY           SKY/WX    TMP DP  RH WIND       PRES   REMARKS
AUSTIN/BERGSTM MOCLDY    80  75  84 S5        29.84F TC  27           
WACO           CLEAR     80  72  76 S17G24    29.85R TC  27           
HILLSBORO      CLEAR     80  72  76 S9        29.85F TC  27           
TEMPLE         CLEAR     79  74  84 S12       29.86F TC  26           
KILLEEN-GRAY   CLEAR     80  73  79 SE12      29.85F TC  27           
FORT HOOD      CLEAR     80  73  81 S8        29.84F TC  26           
GEORGETOWN     CLEAR     80  73  79 S12G20    29.87F TC  27           
LAGO VISTA     PTCLDY    78  74  87 S8G17     29.91F TC  26           
SAN MARCOS     CLOUDY    78  76  93 CALM      29.86F TC  26           
NEW BRAUNFELS  CLOUDY    81  76  84 SE7       29.84F TC  27           
RANDOLPH AFB   CLOUDY    82  74  78 SE8       29.82  TC  28           
SAN ANTONIO    MOCLDY    80  74  81 SE12      29.85S TC  27           
STINSON        MOCLDY    81  74  79 SE8       29.82S TC  27           
PLEASANTON     NOT AVBL                                               
LA GRANGE      CLEAR     79  79 100 SE5       29.83F TC  26           
GIDDINGS         N/A     78  74  89 MISG      29.89F TC  26           
$$


SKY/WX - Weather  TMP - Temperature  DP - Dew Point  RH - Humidity
WIND - Wind Direction/Speed PRES - Barometric Pressure VSB - Visibility
WCI - Wind Chill Index E13G22 Wind - East Wind 13 mph/Gusts of 22 mph

Trending Headlines

Trending Entertainment Headlines

Poteet Radar Loop

Use the map search tool if you want to place a location marker on the radar map...

Poteet Quick Facts

National Two Day Weather Forecast


E-mail the Poteet Weather Forecast

Voice your opinion or tell us about page issues...